Dodge Center, MN

4:39 AM CST on January 19, 2018 (GMT -0600)
Dodge Center

Weather History for KTOB - August, 2014

Change the Weather History Date:

Friday, August 8, 2014

  Actual Average (KRST) Record (KRST)
Temperature  
Mean Temperature 69 °F -  
Max Temperature 78 °F 79 °F 97 °F (1934)
Min Temperature 60 °F 58 °F 45 °F (1932)
Cooling Degree Days 4    
Growing Degree Days 19 (Base 50)    
Moisture  
Dew Point 62 °F    
Average Humidity 78    
Maximum Humidity 94    
Minimum Humidity 57    
Precipitation  
Precipitation 0.00 in - - ()
Sea Level Pressure  
Sea Level Pressure 30.09 in    
Wind  
Wind Speed 5 mph (ESE)    
Max Wind Speed 10 mph    
Max Gust Speed 16 mph    
Visibility 10 miles    
Events Rain    
Averages and records for this station are not official NWS values.
T = Trace of Precipitation, MM = Missing Value Source: NWS Daily Summary

Daily Weather History Graph

Daily Weather History Graph

Search for Another Location

Airport or City:

Trip Planner

Search our weather history database for the weather conditions in past years. The results will help you decide how hot, cold, wet, or windy it might be!

Date:

Astronomy

Aug. 08, 2014 Rise Set
Actual Time 6:07 AM CDT 8:25 PM CDT
Civil Twilight 5:35 AM CDT 8:57 PM CDT
Nautical Twilight 4:55 AM CDT 9:37 PM CDT
Astronomical Twilight 4:10 AM CDT 10:21 PM CDT
Moon 6:38 PM CDT (8/8) 3:38 AM CDT (8/8)
Length of Visible Light 15h 22m
Length of Day
14h 18m
Waxing Gibbous, 94% of the Moon is Illuminated
Aug 8
Waxing Gibbous
Aug 10
Full
Aug 17
Last Quarter
Aug 25
New
Sep 2
First Quarter

Hourly Weather History & Observations

Time (CDT) Temp. Dew Point Humidity Pressure Visibility Wind Dir Wind Speed Gust Speed Precip Events Conditions
12:14 AM 66.2 °F 60.8 °F 83% 30.06 in 10.0 mi East 4.6 mph - N/A   Overcast
12:33 AM 66.2 °F 60.8 °F 83% 30.06 in 10.0 mi East 4.6 mph - N/A   Overcast
12:53 AM 64.4 °F 60.8 °F 88% 30.07 in 10.0 mi East 3.5 mph - N/A   Scattered Clouds
1:14 AM 64.4 °F 60.8 °F 88% 30.07 in 10.0 mi ESE 4.6 mph - N/A   Scattered Clouds
1:33 AM 64.4 °F 60.8 °F 88% 30.07 in 10.0 mi ESE 4.6 mph - N/A   Clear
1:54 AM 62.6 °F 60.8 °F 94% 30.07 in 10.0 mi SE 5.8 mph - N/A   Clear
2:14 AM 64.4 °F 60.8 °F 88% 30.07 in 10.0 mi ESE 4.6 mph - N/A   Mostly Cloudy
2:33 AM 64.4 °F 60.8 °F 88% 30.07 in 10.0 mi ESE 4.6 mph - N/A   Overcast
2:54 AM 64.4 °F 60.8 °F 88% 30.07 in 10.0 mi ESE 4.6 mph - N/A   Mostly Cloudy
3:14 AM 64.4 °F 60.8 °F 88% 30.07 in 10.0 mi ESE 4.6 mph - N/A   Overcast
3:33 AM 64.4 °F 60.8 °F 88% 30.08 in 10.0 mi SE 4.6 mph - N/A   Overcast
3:54 AM 64.4 °F 60.8 °F 88% 30.08 in 10.0 mi ESE 5.8 mph - N/A   Overcast
4:14 AM 64.4 °F 60.8 °F 88% 30.08 in 10.0 mi SE 5.8 mph - N/A   Overcast
4:33 AM 64.4 °F 60.8 °F 88% 30.08 in 10.0 mi SE 5.8 mph - N/A   Mostly Cloudy
4:54 AM 62.6 °F 60.8 °F 94% 30.08 in 10.0 mi ESE 5.8 mph - N/A   Scattered Clouds
5:14 AM 62.6 °F 60.8 °F 94% 30.08 in 10.0 mi ESE 4.6 mph - N/A   Scattered Clouds
5:33 AM 60.8 °F 59.0 °F 94% 30.09 in 10.0 mi East 5.8 mph - N/A   Scattered Clouds
5:54 AM 62.6 °F 60.8 °F 94% 30.09 in 10.0 mi East 5.8 mph - N/A   Mostly Cloudy
6:13 AM 62.6 °F 60.8 °F 94% 30.09 in 10.0 mi ESE 6.9 mph - N/A   Scattered Clouds
6:34 AM 62.6 °F 59.0 °F 88% 30.10 in 10.0 mi East 6.9 mph - N/A   Scattered Clouds
6:54 AM 62.6 °F 60.8 °F 94% 30.10 in 10.0 mi ESE 5.8 mph - N/A   Mostly Cloudy
7:13 AM 64.4 °F 60.8 °F 88% 30.10 in 10.0 mi ESE 5.8 mph - N/A   Scattered Clouds
7:34 AM 64.4 °F 60.8 °F 88% 30.11 in 10.0 mi ESE 4.6 mph - N/A   Scattered Clouds
7:53 AM 64.4 °F 60.8 °F 88% 30.11 in 10.0 mi ESE 3.5 mph - N/A   Scattered Clouds
8:14 AM 66.2 °F 60.8 °F 83% 30.12 in 10.0 mi Calm Calm - N/A   Clear
8:33 AM 66.2 °F 60.8 °F 83% 30.12 in 10.0 mi SE 4.6 mph - N/A   Scattered Clouds
8:53 AM 68.0 °F 60.8 °F 78% 30.11 in 10.0 mi ESE 6.9 mph - N/A   Scattered Clouds
9:14 AM 68.0 °F 60.8 °F 78% 30.12 in 10.0 mi SE 8.1 mph - N/A   Clear
9:33 AM 69.8 °F 62.6 °F 78% 30.12 in 10.0 mi SE 8.1 mph - N/A   Clear
9:53 AM 69.8 °F 62.6 °F 78% 30.12 in 10.0 mi ESE 5.8 mph - N/A Rain Light Rain
10:13 AM 69.8 °F 62.6 °F 78% 30.11 in 10.0 mi ESE 6.9 mph - N/A   Clear
10:33 AM 71.6 °F 62.6 °F 73% 30.12 in 10.0 mi ESE 3.5 mph - N/A   Clear
10:54 AM 73.4 °F 62.6 °F 69% 30.12 in 10.0 mi ESE 5.8 mph - N/A   Clear
11:13 AM 73.4 °F 62.6 °F 69% 30.12 in 10.0 mi SE 6.9 mph - N/A   Clear
11:33 AM 73.4 °F 62.6 °F 69% 30.12 in 10.0 mi East 8.1 mph - N/A   Clear
11:54 AM 73.4 °F 62.6 °F 69% 30.12 in 10.0 mi ESE 6.9 mph - N/A   Clear
12:13 PM 73.4 °F 62.6 °F 69% 30.12 in 10.0 mi ESE 9.2 mph - N/A   Clear
12:33 PM 73.4 °F 62.6 °F 69% 30.12 in 10.0 mi SE 8.1 mph - N/A   Clear
12:54 PM 73.4 °F 64.4 °F 73% 30.12 in 10.0 mi East 5.8 mph - N/A Rain Light Rain
1:13 PM 75.2 °F 64.4 °F 69% 30.11 in 10.0 mi East 8.1 mph - N/A   Scattered Clouds
1:33 PM 75.2 °F 62.6 °F 65% 30.11 in 10.0 mi East 10.4 mph 16.1 mph N/A   Clear
1:54 PM 75.2 °F 64.4 °F 69% 30.10 in 10.0 mi East 8.1 mph - N/A   Clear
2:13 PM 75.2 °F 62.6 °F 65% 30.09 in 10.0 mi ESE 8.1 mph - N/A   Scattered Clouds
2:34 PM 75.2 °F 62.6 °F 65% 30.09 in 10.0 mi SE 9.2 mph - N/A   Clear
2:54 PM 75.2 °F 62.6 °F 65% 30.09 in 10.0 mi East 8.1 mph - N/A   Clear
3:34 PM 77.0 °F 60.8 °F 57% 30.08 in 10.0 mi ESE 6.9 mph - N/A   Scattered Clouds
3:54 PM 77.0 °F 62.6 °F 61% 30.08 in 10.0 mi East 8.1 mph - N/A   Scattered Clouds
4:13 PM 78.8 °F 62.6 °F 57% 30.09 in 10.0 mi East 6.9 mph - N/A   Scattered Clouds
4:34 PM 77.0 °F 62.6 °F 61% 30.08 in 10.0 mi East 6.9 mph - N/A   Scattered Clouds
4:54 PM 77.0 °F 62.6 °F 61% 30.08 in 10.0 mi East 8.1 mph - N/A   Scattered Clouds
5:13 PM 78.8 °F 62.6 °F 57% 30.08 in 10.0 mi East 9.2 mph - N/A   Clear
5:34 PM 77.0 °F 62.6 °F 61% 30.08 in 10.0 mi ESE 5.8 mph - N/A   Clear
5:53 PM 75.2 °F 60.8 °F 61% 30.09 in 10.0 mi ESE 5.8 mph - N/A   Clear
6:14 PM 75.2 °F 62.6 °F 65% 30.09 in 10.0 mi ESE 4.6 mph - N/A   Scattered Clouds
6:34 PM 75.2 °F 60.8 °F 61% 30.09 in 10.0 mi ESE 5.8 mph - N/A   Scattered Clouds
6:53 PM 75.2 °F 62.6 °F 65% 30.09 in 10.0 mi East 4.6 mph - N/A   Scattered Clouds
7:14 PM 73.4 °F 62.6 °F 69% 30.08 in 10.0 mi East 5.8 mph - N/A   Clear
7:34 PM 71.6 °F 64.4 °F 78% 30.08 in 10.0 mi East 5.8 mph - N/A   Clear
7:53 PM 71.6 °F 64.4 °F 78% 30.09 in 10.0 mi East 3.5 mph - N/A   Clear
8:14 PM 69.8 °F 64.4 °F 83% 30.09 in 10.0 mi ENE 3.5 mph - N/A   Clear
8:34 PM 69.8 °F 62.6 °F 78% 30.09 in 10.0 mi ENE 3.5 mph - N/A   Clear
8:53 PM 66.2 °F 62.6 °F 88% 30.09 in 10.0 mi East 4.6 mph - N/A   Clear
11:13 PM 64.4 °F 60.8 °F 88% 30.10 in 10.0 mi ESE 4.6 mph - N/A   Clear
11:34 PM 64.4 °F 60.8 °F 88% 30.10 in 10.0 mi ESE 3.5 mph - N/A   Clear